Regional Weather Roundup
Issued by NWS

Home | Current Version | Previous Version | Text Only | Print | Product List | Glossary On
Versions: 1 2 3 4 5 6 7 8 9 10 11 12 13 14 15 16 17 18 19 20 21 22 23 24 25 26 27 28 29 30 31 32 33 34 35 36 37 38 39 40 41 42 43 44 45 46 47 48 49 50
000
ASUS43 KIND 131209
RWRIN

WEATHER ROUNDUP FOR INDIANA
NATIONAL WEATHER SERVICE INDIANAPOLIS IN
800 AM EDT SUN JUL 13 2014

NOTE: "FAIR" INDICATES FEW OR NO CLOUDS BELOW 12,000 FEET WITH NO
SIGNIFICANT WEATHER AND/OR OBSTRUCTIONS TO VISIBILITY.

* - STATION DOES NOT REPORT WEATHER SUCH AS PRECIPITATION OR FOG.

+ - STATION NOT QUALITY CONTROLLED BY THE NATIONAL WEATHER SERVICE.
    USE DATA WITH CAUTION...ESPECIALLY DEWPOINT AND RELATIVE
    HUMIDITY OBSERVATIONS.

INZ001>003-010>013-019-020-131300-
NORTHWEST INDIANA

CITY           SKY/WX    TMP DP  RH WIND       PRES   REMARKS
GARY /AIRPORT/ PTSUNNY   72  70  94 W8        29.92R
KNOX *+        CLOUDY    72  67  87 W6        29.91R
LA PORTE +     CLOUDY    70  70 100 W7        29.93R
6HR MIN TEMP:  70; 6HR MAX TEMP:  75; 6HR PCP:  0.56;

MICHIGAN CITY+ CLOUDY    70  70 100 W5        29.93R
MONTICELLO +   CLOUDY    72  71  97 W8        29.93R
RENSSELAER +   CLOUDY    72  72 100 SW6       29.94R
VALPARAISO     CLOUDY    71  69  93 W8        29.93R
6HR MIN TEMP:  71; 6HR MAX TEMP:  77; 6HR PCP:  0.29;


$$

LMZ046-743>745-131300-
SOUTHERN LAKE MICHIGAN

STATION/POSITION TIME  TEMP WIND        PRES
                       AIR  DIR/SP/G
                 (UTC) (F)  (DEG/KT/KT) (MB)
MICHIGAN CITY    1200   70  240/ 12/ 14   N/A

$$

INZ004-005-014>016-021>024-131300-
NORTH CENTRAL INDIANA

CITY           SKY/WX    TMP DP  RH WIND       PRES   REMARKS
ELKHART        CLOUDY    72  70  94 W12       29.91
GOSHEN         CLOUDY    73  69  87 W12       29.90R
6HR MIN TEMP:  73; 6HR MAX TEMP:  77; 6HR PCP:  0.37;

LOGANSPORT +   CLOUDY    72  68  88 W10       29.94R
PERU/GRISSOM   CLOUDY    72  72 100 W13       29.93R
6HR MIN TEMP:  70; 6HR MAX TEMP:  77; 6HR PCP:  0.16;

ROCHESTER +    CLOUDY    73  73 100 W6        29.93R
SOUTH BEND     CLOUDY    71  67  87 W13       29.92R
6HR MIN TEMP:  70; 6HR MAX TEMP:  77; 6HR PCP:  0.45;

WARSAW +       CLOUDY    72  70  94 W10       29.91S

$$

INZ006>009-017-018-025>027-131300-
NORTHEAST INDIANA

CITY           SKY/WX    TMP DP  RH WIND       PRES   REMARKS
ANGOLA *+      CLOUDY    72  64  78 W8        29.89R
AUBURN +       CLOUDY    73  68  83 W10       29.91R
FORT WAYNE     CLOUDY    74  67  78 W17G25    29.90R
6HR MIN TEMP:  74; 6HR MAX TEMP:  77; 6HR PCP:  0.02;

HUNTINGTON +   PTSUNNY   71  69  92 W13G20    29.92R
6HR MIN TEMP:  71; 6HR MAX TEMP:  77; 6HR PCP:  0.07;


$$

INZ028-029-035-036-043>045-051>053-131300-
WEST CENTRAL INDIANA

CITY           SKY/WX    TMP DP  RH WIND       PRES   REMARKS
GREENCASTLE +  CLOUDY    73  72  94 CALM      30.00R
LAFAYETTE      CLOUDY    72  71  97 SW9       29.94S
6HR MIN TEMP:  71; 6HR MAX TEMP:  77; 6HR PCP:  0.56;

TERRE HAUTE    PTSUNNY   76  72  87 SW6       30.00R
6HR MIN TEMP:  75; 6HR MAX TEMP:  77;


$$

INZ030>032-037>040-046>048-054>057-064-065-131300-
CENTRAL INDIANA

CITY           SKY/WX    TMP DP  RH WIND       PRES   REMARKS
CP ATTERBURY + CLOUDY    77  70  78 W7        30.00R
COLUMBUS       PTSUNNY   75  72  88 SW8       30.00R
GREENWOOD *+   CLOUDY    79  75  89 SW10      29.99S
INDIANAPOLIS   CLOUDY    76  71  85 SW14      29.97S
6HR MIN TEMP:  75; 6HR MAX TEMP:  77;

-EAGLE CREEK   CLOUDY    76  71  85 SW10      29.96S
6HR MIN TEMP:  76; 6HR MAX TEMP:  77;

KOKOMO *+      CLOUDY    72  70  94 W14       29.94R
MARION +       CLOUDY    71  69  92 W14G20    29.94S
MT COMFORT *+  CLOUDY    77 N/A N/A SW13G18   29.97F
SHELBYVILLE    CLOUDY    76  71  85 S9        29.98R
6HR MIN TEMP:  75; 6HR MAX TEMP:  76;

ZIONSVILLE +   CLOUDY    76  71  83 SW10G16   29.96F
6HR MIN TEMP:  76; 6HR MAX TEMP:  79;


$$

INZ033-034-041-042-049-050-058-059-131300-
EAST CENTRAL INDIANA

CITY           SKY/WX    TMP DP  RH WIND       PRES   REMARKS
MUNCIE         CLOUDY    75  69  81 W7        29.95R
6HR MIN TEMP:  75; 6HR MAX TEMP:  77; 6HR PCP: TRACE;


$$

INZ060-061-067>069-081>083-085>088-131300-
SOUTHWEST INDIANA

CITY           SKY/WX    TMP DP  RH WIND       PRES   REMARKS
EVANSVILLE     MOSUNNY   76  71  85 SW7       30.02F
6HR MIN TEMP:  75; 6HR MAX TEMP:  79;

HUNTINGBURG *+ PTSUNNY   75  70  83 SW8       30.03F
6HR MIN TEMP:  75; 6HR MAX TEMP:  77;

WASHINGTON +   CLOUDY    76  73  89 SW7       30.00S
6HR MIN TEMP:  76; 6HR MAX TEMP:  78;


$$

INZ062-063-066-070>080-084-089>092-131300-
SOUTH CENTRAL AND SOUTHEAST INDIANA

CITY           SKY/WX    TMP DP  RH WIND       PRES   REMARKS
BLOOMINGTON    CLOUDY    77  71  82 W9        30.01R
6HR MIN TEMP:  77; 6HR MAX TEMP:  79;


$$



USA.gov is the U.S. government's official web portal to all federal, state and local government web resources and services.